Lake Winnipesaukee Weather Center

Moon Phase Calendar



Lake Winnipesaukee Water Level
Online Cameras

 


      

Current Conditions in Gilford
12/4/2021 12:28:11 AM

24°F
Feels Like 20
Clear
Humidity
50%
Pressure
29.91"
Wind
3 mph (SSW)
Dew Point
10°F
UV Index
0/10 (Low)
Visibility
6 mi

Hourly Forecast

Date & Time Sat, Dec 4
12:00 AM
Sat, Dec 4
1:00 AM
Sat, Dec 4
2:00 AM
Sat, Dec 4
3:00 AM
Sat, Dec 4
4:00 AM
Sat, Dec 4
5:00 AM
Sat, Dec 4
6:00 AM
Sat, Dec 4
7:00 AM
Sat, Dec 4
8:00 AM
Sat, Dec 4
9:00 AM
Sat, Dec 4
10:00 AM
Sat, Dec 4
11:00 AM
Sat, Dec 4
12:00 PM
Sat, Dec 4
1:00 PM
Sat, Dec 4
2:00 PM
Sat, Dec 4
3:00 PM
Sat, Dec 4
4:00 PM
Sat, Dec 4
5:00 PM
Sat, Dec 4
6:00 PM
Sat, Dec 4
7:00 PM
Sat, Dec 4
8:00 PM
Sat, Dec 4
9:00 PM
Sat, Dec 4
10:00 PM
Sat, Dec 4
11:00 PM
Sun, Dec 5
12:00 AM
Sun, Dec 5
1:00 AM
Sun, Dec 5
2:00 AM
Sun, Dec 5
3:00 AM
Sun, Dec 5
4:00 AM
Sun, Dec 5
5:00 AM
Sun, Dec 5
6:00 AM
Sun, Dec 5
7:00 AM
Sun, Dec 5
8:00 AM
Sun, Dec 5
9:00 AM
Sun, Dec 5
10:00 AM
Sun, Dec 5
11:00 AM
Sun, Dec 5
12:00 PM
Sun, Dec 5
1:00 PM
Sun, Dec 5
2:00 PM
Sun, Dec 5
3:00 PM
Sun, Dec 5
4:00 PM
Sun, Dec 5
5:00 PM
Sun, Dec 5
6:00 PM
Sun, Dec 5
7:00 PM
Sun, Dec 5
8:00 PM
Sun, Dec 5
9:00 PM
Sun, Dec 5
10:00 PM
Sun, Dec 5
11:00 PM
Condition
Clear

Clear

Clear

Clear

Clear

Clear

Clear

Clear

Clear

Clear

Clear

Clear

Clear

Clouds

Clouds

Clouds

Clouds

Clouds

Clouds

Clouds

Clouds

Clouds

Clouds

Clouds

Clouds

Clouds

Clouds

Clouds

Clouds

Clouds

Clouds

Clouds

Clouds

Clouds

Clouds

Clouds

Clouds

Clouds

Clouds

Clouds

Clouds

Clouds

Clouds

Clouds

Clouds

Clouds

Clouds

Clouds
Temperature 24°F24°F24°F23°F23°F22°F22°F22°F23°F26°F29°F31°F33°F34°F35°F35°F32°F30°F29°F29°F31°F32°F32°F32°F31°F30°F30°F29°F29°F29°F28°F27°F28°F30°F32°F33°F34°F35°F34°F33°F29°F28°F28°F28°F28°F29°F29°F31°F
Feels Like 16°F16°F17°F17°F17°F18°F22°F22°F23°F22°F24°F26°F27°F29°F29°F30°F32°F30°F29°F29°F24°F25°F25°F24°F23°F22°F22°F22°F21°F20°F20°F20°F21°F23°F26°F28°F29°F29°F28°F29°F29°F28°F28°F28°F28°F29°F29°F27°F
Cloudiness 1%5%3%4%6%6%6%5%1%2%3%3%4%12%62%81%87%91%88%90%100%97%87%70%57%49%19%13%12%11%11%11%16%36%42%46%53%58%100%95%71%61%64%70%100%99%99%99%
Visibility 6 mi6 mi6 mi6 mi6 mi6 mi6 mi6 mi6 mi6 mi6 mi6 mi6 mi6 mi6 mi6 mi6 mi6 mi6 mi6 mi6 mi6 mi6 mi6 mi6 mi6 mi6 mi6 mi6 mi6 mi6 mi6 mi6 mi6 mi6 mi6 mi6 mi6 mi6 mi6 mi6 mi6 mi6 mi6 mi6 mi6 mi6 mi6 mi
Precipitation 0%0%0%0%0%0%0%0%0%0%0%0%0%0%0%0%0%0%0%0%25%27%25%21%16%16%4%4%4%4%4%4%2%2%0%0%0%0%0%0%0%0%0%0%0%0%0%0%
Humidity 50%52%53%54%56%59%61%62%55%44%38%35%34%36%40%50%64%72%78%80%79%83%85%78%72%72%74%75%77%75%74%76%73%65%56%51%48%47%49%53%65%70%70%68%69%68%66%63%
Dew Point 10°F10°F11°F11°F11°F8°F9°F9°F8°F6°F5°F5°F6°F9°F12°F17°F20°F21°F22°F22°F24°F27°F27°F25°F22°F22°F22°F21°F21°F21°F20°F20°F20°F19°F17°F16°F16°F16°F16°F17°F18°F18°F18°F18°F18°F18°F18°F18°F
Pressure 29.91"29.94"29.97"29.97"30.03"30.06"30.09"30.09"30.12"30.12"30.12"30.09"30.06"30.06"30.03"30"30.03"30.03"30.03"30.03"30.03"30.03"30.03"30.06"30.06"30.09"30.12"30.15"30.18"30.21"30.24"30.27"30.3"30.33"30.36"30.36"30.36"30.36"30.39"30.39"30.42"30.42"30.45"30.45"30.45"30.45"30.42"30.39"
Wind Speed 6.5 mph6.2 mph5.3 mph4.7 mph4.2 mph3.5 mph2.4 mph2.3 mph2.5 mph3.2 mph4 mph4.9 mph5.3 mph5.7 mph6.7 mph4.9 mph2.1 mph1.6 mph2 mph2.7 mph6 mph8.4 mph8.5 mph9.4 mph10.2 mph9 mph8.2 mph7.4 mph7.2 mph8.7 mph8 mph7 mph6.9 mph7 mph6.4 mph6.4 mph6.3 mph6.5 mph6.6 mph4.8 mph2 mph1.2 mph0.3 mph1.6 mph2.1 mph2.5 mph2.5 mph3.1 mph
Wind
Direction
289°
WNW
291°
WNW
291°
WNW
284°
WNW
284°
WNW
283°
WNW
275°
W
263°
W
260°
W
259°
W
254°
WSW
254°
WSW
260°
W
245°
WSW
237°
WSW
238°
WSW
230°
SW
193°
SSW
212°
SSW
225°
SW
240°
WSW
254°
WSW
259°
W
267°
W
275°
W
275°
W
274°
W
269°
W
269°
W
274°
W
280°
W
276°
W
277°
W
287°
WNW
293°
WNW
295°
WNW
288°
WNW
278°
W
278°
W
280°
W
274°
W
277°
W
194°
SSW
113°
ESE
111°
ESE
109°
ESE
103°
ESE
105°
ESE

Daily Forecast

Date High Low Precip. Humidity
Today
Dec 4

Clear
35 °F
22 °F
27%
35%
Sunday
Dec 5

Clouds
35 °F
27 °F
16%
51%
Monday
Dec 6

Rain
49 °F
32 °F
100%
95%
Tuesday
Dec 7

Snow
31 °F
26 °F
39%
55%
Wednesday
Dec 8

Snow
27 °F
25 °F
100%
91%
Thursday
Dec 9

Snow
28 °F
6 °F
100%
75%
Friday
Dec 10

Snow
31 °F
5 °F
20%
88%
Saturday
Dec 11

Clouds
38 °F
32 °F
0%
100%
Sunday
Dec 12

Rain
45 °F
31 °F
52%
100%
Monday
Dec 13

Clouds
31 °F
21 °F
15%
68%
Tuesday
Dec 14

Clear
29 °F
18 °F
0%
67%
Wednesday
Dec 15

Clouds
38 °F
22 °F
0%
59%
Thursday
Dec 16

Clouds
42 °F
28 °F
14%
92%
Friday
Dec 17

Clouds
33 °F
29 °F
16%
67%
Saturday
Dec 18

Clear
33 °F
24 °F
2%
60%
Sunday
Dec 19

Clouds
30 °F
22 °F
0%
57%

Temperature 8-14 Day Outlook



Precipitation 8-14 Day Outlook




Quick Links
Lake Winnipesaukee News
Lake Winnipesaukee Photos
Lake Winnipesaukee Videos




About Us
Contact Us
Site Map
Search Site
Advertise With Us
   
Winnipesaukee.USLakes.info
THE LAKE WINNIPESAUKEE WEBSITE

Copyright 2021, Lakes Online
Privacy    |    Legal